Time,TemperatureF,DewpointF,PressureIn,WindDirection,WindDirectionDegrees,WindSpeedMPH,WindSpeedGustMPH,Humidity,HourlyPrecipIn,Conditions,Clouds,dailyrainin,SoftwareType,DateUTC
2013-08-15 00:00:00,58.6,57.2,29.92,South,178,0.0,3.0,95,0.00,,,0.00,Wunderground v.1.15,2013-08-15 07:00:00,
2013-08-15 00:05:00,58.9,57.5,29.91,South,178,0.0,3.0,95,0.00,,,0.00,Wunderground v.1.15,2013-08-15 07:05:00,
2013-08-15 00:15:00,58.6,56.9,29.91,South,178,0.0,0.0,94,0.00,,,0.00,Wunderground v.1.15,2013-08-15 07:15:00,
2013-08-15 00:20:00,58.1,56.1,29.91,South,178,0.0,0.0,93,0.00,,,0.00,Wunderground v.1.15,2013-08-15 07:20:00,
2013-08-15 00:25:00,58.3,56.9,29.91,South,178,0.0,0.0,95,0.00,,,0.00,Wunderground v.1.15,2013-08-15 07:25:00,
2013-08-15 00:30:00,59.1,58.0,29.92,South,178,0.0,0.0,96,0.00,,,0.00,Wunderground v.1.15,2013-08-15 07:30:00,
2013-08-15 00:35:00,58.7,57.0,29.91,South,178,0.0,0.0,94,0.00,,,0.00,Wunderground v.1.15,2013-08-15 07:35:00,
2013-08-15 00:45:00,58.0,56.3,29.91,South,178,0.0,0.0,94,0.00,,,0.00,Wunderground v.1.15,2013-08-15 07:45:00,
2013-08-15 00:50:00,57.7,56.0,29.91,South,178,0.0,0.0,94,0.00,,,0.00,Wunderground v.1.15,2013-08-15 07:50:00,
2013-08-15 00:55:00,58.2,57.1,29.91,South,178,0.0,0.0,96,0.00,,,0.00,Wunderground v.1.15,2013-08-15 07:55:00,
2013-08-15 01:00:00,58.7,57.6,29.91,South,178,0.0,0.0,96,0.00,,,0.00,Wunderground v.1.15,2013-08-15 08:00:00,
2013-08-15 01:05:00,58.3,56.6,29.91,South,178,0.0,0.0,94,0.00,,,0.00,Wunderground v.1.15,2013-08-15 08:05:00,
2013-08-15 01:15:00,57.7,56.3,29.91,South,178,0.0,0.0,95,0.00,,,0.00,Wunderground v.1.15,2013-08-15 08:15:00,
2013-08-15 01:20:00,58.2,57.4,29.91,South,178,0.0,0.0,97,0.00,,,0.00,Wunderground v.1.15,2013-08-15 08:20:00,
2013-08-15 01:25:00,58.1,57.0,29.91,South,178,0.0,0.0,96,0.00,,,0.00,Wunderground v.1.15,2013-08-15 08:25:00,
2013-08-15 01:30:00,58.2,57.1,29.91,South,178,0.0,0.0,96,0.00,,,0.00,Wunderground v.1.15,2013-08-15 08:30:00,
2013-08-15 01:35:00,58.3,57.2,29.91,South,178,0.0,0.0,96,0.00,,,0.00,Wunderground v.1.15,2013-08-15 08:35:00,
2013-08-15 01:45:00,57.0,55.6,29.90,South,178,0.0,0.0,95,0.00,,,0.00,Wunderground v.1.15,2013-08-15 08:45:00,
2013-08-15 01:50:00,56.9,55.5,29.90,South,178,0.0,0.0,95,0.00,,,0.00,Wunderground v.1.15,2013-08-15 08:50:00,
2013-08-15 01:55:00,56.9,55.8,29.91,South,178,0.0,0.0,96,0.00,,,0.00,Wunderground v.1.15,2013-08-15 08:55:00,
2013-08-15 02:00:00,56.5,55.1,29.91,South,178,0.0,0.0,95,0.00,,,0.00,Wunderground v.1.15,2013-08-15 09:00:00,
2013-08-15 02:10:00,56.7,55.9,29.91,South,178,0.0,0.0,97,0.00,,,0.00,Wunderground v.1.15,2013-08-15 09:10:00,
2013-08-15 02:15:00,57.5,56.7,29.90,South,178,0.0,0.0,97,0.00,,,0.00,Wunderground v.1.15,2013-08-15 09:15:00,
2013-08-15 02:20:00,57.5,56.7,29.90,South,178,0.0,0.0,97,0.00,,,0.00,Wunderground v.1.15,2013-08-15 09:20:00,
2013-08-15 02:25:00,57.0,55.9,29.91,South,178,0.0,0.0,96,0.00,,,0.00,Wunderground v.1.15,2013-08-15 09:25:00,
2013-08-15 02:30:00,56.6,55.2,29.90,South,178,0.0,0.0,95,0.00,,,0.00,Wunderground v.1.15,2013-08-15 09:30:00,
2013-08-15 02:35:00,56.3,55.2,29.91,South,178,0.0,0.0,96,0.00,,,0.00,Wunderground v.1.15,2013-08-15 09:35:00,
2013-08-15 02:45:00,56.4,55.6,29.90,South,178,0.0,0.0,97,0.00,,,0.00,Wunderground v.1.15,2013-08-15 09:45:00,
2013-08-15 02:50:00,56.1,55.0,29.91,South,178,0.0,0.0,96,0.00,,,0.00,Wunderground v.1.15,2013-08-15 09:50:00,
2013-08-15 02:55:00,55.9,54.8,29.91,South,178,0.0,0.0,96,0.00,,,0.00,Wunderground v.1.15,2013-08-15 09:55:00,
2013-08-15 03:00:00,55.7,54.6,29.91,South,178,0.0,0.0,96,0.00,,,0.00,Wunderground v.1.15,2013-08-15 10:00:00,
2013-08-15 03:10:00,55.5,54.7,29.91,South,178,0.0,0.0,97,0.00,,,0.00,Wunderground v.1.15,2013-08-15 10:10:00,
2013-08-15 03:20:00,56.6,56.0,29.91,South,178,0.0,0.0,98,0.00,,,0.00,Wunderground v.1.15,2013-08-15 10:20:00,
2013-08-15 03:25:00,56.0,54.9,29.91,South,178,0.0,0.0,96,0.00,,,0.00,Wunderground v.1.15,2013-08-15 10:25:00,
2013-08-15 05:30:00,53.3,52.5,29.91,South,178,0.0,0.0,97,0.00,,,0.00,Wunderground v.1.15,2013-08-15 12:30:00,
2013-08-15 05:40:00,53.3,52.5,29.91,South,178,0.0,0.0,97,0.00,,,0.00,Wunderground v.1.15,2013-08-15 12:40:00,
2013-08-15 05:45:00,52.6,51.8,29.91,South,178,0.0,0.0,97,0.00,,,0.00,Wunderground v.1.15,2013-08-15 12:45:00,
2013-08-15 05:50:00,52.2,51.4,29.91,South,178,0.0,0.0,97,0.00,,,0.00,Wunderground v.1.15,2013-08-15 12:50:00,
2013-08-15 06:00:00,52.4,51.9,29.91,South,175,0.0,0.0,98,0.00,,,0.00,Wunderground v.1.15,2013-08-15 13:00:00,
2013-08-15 06:05:00,52.5,52.0,29.90,SSW,207,0.0,0.0,98,0.00,,,0.00,Wunderground v.1.15,2013-08-15 13:05:00,
2013-08-15 06:10:00,52.6,52.1,29.91,SSW,207,0.0,0.0,98,0.00,,,0.00,Wunderground v.1.15,2013-08-15 13:10:00,
2013-08-15 06:15:00,52.3,51.8,29.91,SSW,207,0.0,0.0,98,0.00,,,0.00,Wunderground v.1.15,2013-08-15 13:15:00,
2013-08-15 06:20:00,52.2,51.7,29.91,SSW,207,0.0,0.0,98,0.00,,,0.00,Wunderground v.1.15,2013-08-15 13:20:00,
2013-08-15 06:25:00,52.2,51.7,29.91,SSW,207,0.0,0.0,98,0.00,,,0.00,Wunderground v.1.15,2013-08-15 13:25:00,
2013-08-15 06:35:00,52.3,51.8,29.92,SSW,199,0.0,0.0,98,0.00,,,0.00,Wunderground v.1.15,2013-08-15 13:35:00,
2013-08-15 06:40:00,52.4,51.9,29.92,SW,231,0.0,0.0,98,0.00,,,0.00,Wunderground v.1.15,2013-08-15 13:40:00,
2013-08-15 06:45:00,52.5,52.0,29.92,SW,231,0.0,0.0,98,0.00,,,0.00,Wunderground v.1.15,2013-08-15 13:45:00,
2013-08-15 06:50:00,52.7,52.2,29.92,SW,231,0.0,0.0,98,0.00,,,0.00,Wunderground v.1.15,2013-08-15 13:50:00,
2013-08-15 06:55:00,53.0,52.5,29.92,SW,231,0.0,1.0,98,0.00,,,0.00,Wunderground v.1.15,2013-08-15 13:55:00,
2013-08-15 07:05:00,53.3,52.8,29.92,SW,231,0.0,0.0,98,0.00,,,0.00,Wunderground v.1.15,2013-08-15 14:05:00,
2013-08-15 07:10:00,53.1,52.6,29.92,SW,231,0.0,0.0,98,0.00,,,0.00,Wunderground v.1.15,2013-08-15 14:10:00,
2013-08-15 07:15:00,52.8,52.3,29.92,West,259,0.0,0.0,98,0.00,,,0.00,Wunderground v.1.15,2013-08-15 14:15:00,
2013-08-15 07:20:00,52.7,52.2,29.92,West,260,0.0,0.0,98,0.00,,,0.00,Wunderground v.1.15,2013-08-15 14:20:00,
2013-08-15 07:25:00,52.9,52.4,29.93,West,260,0.0,0.0,98,0.00,,,0.00,Wunderground v.1.15,2013-08-15 14:25:00,
2013-08-15 07:35:00,54.0,53.7,29.93,West,260,0.0,0.0,99,0.00,,,0.01,Wunderground v.1.15,2013-08-15 14:35:00,
2013-08-15 07:40:00,54.6,54.3,29.93,West,260,0.0,0.0,99,0.00,,,0.01,Wunderground v.1.15,2013-08-15 14:40:00,
2013-08-15 07:45:00,55.1,54.8,29.93,WSW,245,0.0,0.0,99,0.00,,,0.01,Wunderground v.1.15,2013-08-15 14:45:00,
2013-08-15 07:50:00,55.6,55.3,29.94,WSW,245,0.0,0.0,99,0.00,,,0.01,Wunderground v.1.15,2013-08-15 14:50:00,
2013-08-15 07:55:00,55.8,55.5,29.94,WSW,245,0.0,0.0,99,0.00,,,0.01,Wunderground v.1.15,2013-08-15 14:55:00,
2013-08-15 08:05:00,56.4,56.1,29.94,WSW,246,0.0,0.0,99,0.00,,,0.01,Wunderground v.1.15,2013-08-15 15:05:00,
2013-08-15 08:10:00,56.9,56.6,29.94,WSW,246,0.0,0.0,99,0.00,,,0.01,Wunderground v.1.15,2013-08-15 15:10:00,
2013-08-15 08:15:00,57.4,57.1,29.94,WSW,246,0.0,0.0,99,0.00,,,0.01,Wunderground v.1.15,2013-08-15 15:15:00,
2013-08-15 08:25:00,58.1,57.8,29.94,WSW,246,0.0,0.0,99,0.00,,,0.01,Wunderground v.1.15,2013-08-15 15:25:00,
2013-08-15 08:30:00,58.5,58.2,29.94,WSW,242,0.0,0.0,99,0.00,,,0.01,Wunderground v.1.15,2013-08-15 15:30:00,
2013-08-15 08:35:00,59.0,58.7,29.94,NNW,343,0.0,0.0,99,0.00,,,0.01,Wunderground v.1.15,2013-08-15 15:35:00,
2013-08-15 08:40:00,59.2,58.9,29.94,NNW,343,0.0,0.0,99,0.00,,,0.01,Wunderground v.1.15,2013-08-15 15:40:00,
2013-08-15 08:45:00,59.5,59.2,29.94,NNW,343,0.0,0.0,99,0.00,,,0.01,Wunderground v.1.15,2013-08-15 15:45:00,
2013-08-15 08:55:00,60.5,60.2,29.95,NNW,343,0.0,0.0,99,0.00,,,0.01,Wunderground v.1.15,2013-08-15 15:55:00,
2013-08-15 09:05:00,61.8,61.5,29.94,NNW,343,0.0,0.0,99,0.00,,,0.01,Wunderground v.1.15,2013-08-15 16:05:00,
2013-08-15 09:25:00,64.2,62.4,29.94,NNW,331,1.0,2.0,94,0.00,,,0.01,Wunderground v.1.15,2013-08-15 16:25:00,
2013-08-15 09:30:00,65.2,62.5,29.94,NNW,332,0.0,0.0,91,0.00,,,0.01,Wunderground v.1.15,2013-08-15 16:30:00,
2013-08-15 09:35:00,66.5,62.8,29.95,NNW,333,0.0,0.0,88,0.00,,,0.01,Wunderground v.1.15,2013-08-15 16:35:00,
2013-08-15 09:40:00,67.4,62.4,29.95,NNW,339,0.0,0.0,84,0.00,,,0.01,Wunderground v.1.15,2013-08-15 16:40:00,
2013-08-15 09:45:00,68.2,62.5,29.95,NNW,340,0.0,0.0,82,0.00,,,0.01,Wunderground v.1.15,2013-08-15 16:45:00,
2013-08-15 09:55:00,69.9,62.4,29.94,NNW,341,1.0,1.0,77,0.00,,,0.01,Wunderground v.1.15,2013-08-15 16:55:00,
2013-08-15 10:00:00,70.3,63.1,29.94,NNW,341,1.0,1.0,78,0.00,,,0.01,Wunderground v.1.15,2013-08-15 17:00:00,
2013-08-15 10:05:00,70.9,63.0,29.94,NNW,341,0.0,1.0,76,0.00,,,0.01,Wunderground v.1.15,2013-08-15 17:05:00,
2013-08-15 10:10:00,71.3,62.6,29.94,North,355,1.0,1.0,74,0.00,,,0.01,Wunderground v.1.15,2013-08-15 17:10:00,
2013-08-15 10:25:00,72.8,63.2,29.94,NNE,30,2.0,3.0,72,0.00,,,0.01,Wunderground v.1.15,2013-08-15 17:25:00,
2013-08-15 10:30:00,73.2,62.8,29.94,NE,35,2.0,2.0,70,0.00,,,0.01,Wunderground v.1.15,2013-08-15 17:30:00,
2013-08-15 10:40:00,73.6,62.8,29.94,South,178,2.0,2.0,69,0.00,,,0.01,Wunderground v.1.15,2013-08-15 17:40:00,
2013-08-15 10:45:00,74.3,62.6,29.94,SSW,192,2.0,2.0,67,0.00,,,0.01,Wunderground v.1.15,2013-08-15 17:45:00,
2013-08-15 10:55:00,75.3,62.7,29.94,South,188,4.0,5.0,65,0.00,,,0.01,Wunderground v.1.15,2013-08-15 17:55:00,
2013-08-15 11:00:00,74.9,63.2,29.94,SE,138,6.0,9.0,67,0.00,,,0.01,Wunderground v.1.15,2013-08-15 18:00:00,
2013-08-15 11:05:00,75.6,63.0,29.94,SSE,163,5.0,9.0,65,0.00,,,0.01,Wunderground v.1.15,2013-08-15 18:05:00,
2013-08-15 11:10:00,76.0,62.5,29.94,South,191,5.0,6.0,63,0.00,,,0.01,Wunderground v.1.15,2013-08-15 18:10:00,
2013-08-15 11:15:00,75.5,62.9,29.94,SSE,167,5.0,11.0,65,0.00,,,0.01,Wunderground v.1.15,2013-08-15 18:15:00,
2013-08-15 11:30:00,74.7,63.4,29.94,SSW,213,8.0,9.0,68,0.00,,,0.01,Wunderground v.1.15,2013-08-15 18:30:00,
2013-08-15 11:35:00,75.4,63.7,29.94,SSW,204,8.0,9.0,67,0.00,,,0.01,Wunderground v.1.15,2013-08-15 18:35:00,
2013-08-15 11:45:00,75.5,64.2,29.95,SSW,213,10.0,13.0,68,0.00,,,0.01,Wunderground v.1.15,2013-08-15 18:45:00,
2013-08-15 11:50:00,74.9,64.0,29.95,SSW,194,12.0,12.0,69,0.00,,,0.01,Wunderground v.1.15,2013-08-15 18:50:00,
2013-08-15 12:00:00,74.7,64.3,29.94,South,189,11.0,13.0,70,0.00,,,0.01,Wunderground v.1.15,2013-08-15 19:00:00,
2013-08-15 12:05:00,75.1,64.6,29.94,SW,223,12.0,13.0,70,0.00,,,0.01,Wunderground v.1.15,2013-08-15 19:05:00,
2013-08-15 12:10:00,75.7,64.4,29.94,SSW,206,13.0,13.0,68,0.00,,,0.01,Wunderground v.1.15,2013-08-15 19:10:00,
2013-08-15 12:15:00,75.6,64.7,29.94,SSW,197,11.0,13.0,69,0.00,,,0.01,Wunderground v.1.15,2013-08-15 19:15:00,
2013-08-15 12:30:00,75.3,64.0,29.94,South,179,10.0,16.0,68,0.00,,,0.01,Wunderground v.1.15,2013-08-15 19:30:00,
2013-08-15 12:40:00,75.2,64.3,29.94,SW,214,10.0,13.0,69,0.00,,,0.01,Wunderground v.1.15,2013-08-15 19:40:00,
2013-08-15 12:45:00,74.7,63.9,29.94,SSW,209,9.0,17.0,69,0.00,,,0.01,Wunderground v.1.15,2013-08-15 19:45:00,
2013-08-15 12:50:00,74.7,64.3,29.94,SW,229,9.0,13.0,70,0.00,,,0.01,Wunderground v.1.15,2013-08-15 19:50:00,
2013-08-15 12:55:00,74.2,63.8,29.94,SSW,212,10.0,13.0,70,0.00,,,0.01,Wunderground v.1.15,2013-08-15 19:55:00,
2013-08-15 13:05:00,74.0,64.0,29.94,SSW,211,9.0,9.0,71,0.00,,,0.01,Wunderground v.1.15,2013-08-15 20:05:00,
2013-08-15 13:20:00,74.7,64.3,29.94,SSW,198,12.0,12.0,70,0.00,,,0.01,Wunderground v.1.15,2013-08-15 20:20:00,
2013-08-15 13:25:00,74.1,64.1,29.94,SSW,200,12.0,12.0,71,0.00,,,0.01,Wunderground v.1.15,2013-08-15 20:25:00,
2013-08-15 13:35:00,74.8,64.4,29.94,South,179,9.0,11.0,70,0.00,,,0.01,Wunderground v.1.15,2013-08-15 20:35:00,
2013-08-15 13:40:00,74.6,64.2,29.94,SSW,194,10.0,10.0,70,0.00,,,0.01,Wunderground v.1.15,2013-08-15 20:40:00,
2013-08-15 13:45:00,73.9,64.3,29.94,South,184,11.0,11.0,72,0.00,,,0.01,Wunderground v.1.15,2013-08-15 20:45:00,
2013-08-15 13:50:00,74.0,64.0,29.94,South,180,10.0,10.0,71,0.00,,,0.01,Wunderground v.1.15,2013-08-15 20:50:00,
2013-08-15 13:55:00,74.0,64.0,29.94,South,184,10.0,10.0,71,0.00,,,0.01,Wunderground v.1.15,2013-08-15 20:55:00,
2013-08-15 14:00:00,73.5,63.9,29.94,SSW,212,11.0,16.0,72,0.00,,,0.01,Wunderground v.1.15,2013-08-15 21:00:00,
2013-08-15 14:05:00,73.3,63.7,29.94,South,172,12.0,16.0,72,0.00,,,0.01,Wunderground v.1.15,2013-08-15 21:05:00,
2013-08-15 14:20:00,73.2,63.6,29.94,South,186,12.0,12.0,72,0.00,,,0.01,Wunderground v.1.15,2013-08-15 21:20:00,
2013-08-15 14:30:00,73.7,64.1,29.94,SW,229,10.0,11.0,72,0.00,,,0.01,Wunderground v.1.15,2013-08-15 21:30:00,
2013-08-15 14:40:00,74.0,64.0,29.94,SSE,150,12.0,12.0,71,0.00,,,0.01,Wunderground v.1.15,2013-08-15 21:40:00,
2013-08-15 14:50:00,73.8,64.2,29.94,SW,215,11.0,11.0,72,0.00,,,0.01,Wunderground v.1.15,2013-08-15 21:50:00,
2013-08-15 14:55:00,73.9,64.7,29.94,SSW,211,10.0,14.0,73,0.00,,,0.01,Wunderground v.1.15,2013-08-15 21:55:00,
2013-08-15 15:00:00,74.7,64.7,29.94,SSW,202,10.0,19.0,71,0.00,,,0.01,Wunderground v.1.15,2013-08-15 22:00:00,
2013-08-15 15:10:00,74.3,64.7,29.94,South,171,12.0,22.0,72,0.00,,,0.01,Wunderground v.1.15,2013-08-15 22:10:00,
2013-08-15 15:15:00,74.3,64.7,29.93,SSW,197,14.0,22.0,72,0.00,,,0.01,Wunderground v.1.15,2013-08-15 22:15:00,
2013-08-15 15:20:00,74.3,65.1,29.93,SSW,205,12.0,12.0,73,0.00,,,0.01,Wunderground v.1.15,2013-08-15 22:20:00,
2013-08-15 15:25:00,74.3,64.7,29.93,SSW,200,11.0,12.0,72,0.00,,,0.01,Wunderground v.1.15,2013-08-15 22:25:00,
2013-08-15 15:30:00,74.8,64.8,29.93,SSW,197,10.0,11.0,71,0.00,,,0.01,Wunderground v.1.15,2013-08-15 22:30:00,
2013-08-15 15:40:00,74.6,65.0,29.93,South,187,11.0,11.0,72,0.00,,,0.01,Wunderground v.1.15,2013-08-15 22:40:00,
2013-08-15 15:45:00,73.9,64.7,29.93,SSW,199,12.0,12.0,73,0.00,,,0.01,Wunderground v.1.15,2013-08-15 22:45:00,
2013-08-15 15:50:00,73.8,65.0,29.93,SSE,167,12.0,12.0,74,0.00,,,0.01,Wunderground v.1.15,2013-08-15 22:50:00,
2013-08-15 15:55:00,73.7,64.9,29.93,SSW,192,12.0,14.0,74,0.00,,,0.01,Wunderground v.1.15,2013-08-15 22:55:00,
2013-08-15 16:10:00,73.0,64.6,29.93,SSW,205,13.0,14.0,75,0.00,,,0.01,Wunderground v.1.15,2013-08-15 23:10:00,
2013-08-15 16:15:00,72.7,64.7,29.93,South,186,13.0,14.0,76,0.00,,,0.01,Wunderground v.1.15,2013-08-15 23:15:00,
2013-08-15 16:25:00,72.6,64.6,29.93,SSW,204,12.0,13.0,76,0.00,,,0.01,Wunderground v.1.15,2013-08-15 23:25:00,
2013-08-15 16:30:00,71.8,64.2,29.93,South,191,11.0,11.0,77,0.00,,,0.01,Wunderground v.1.15,2013-08-15 23:30:00,
2013-08-15 16:40:00,71.6,64.0,29.92,South,173,11.0,11.0,77,0.00,,,0.01,Wunderground v.1.15,2013-08-15 23:40:00,
2013-08-15 16:45:00,71.5,63.9,29.92,SW,225,11.0,11.0,77,0.00,,,0.01,Wunderground v.1.15,2013-08-15 23:45:00,
2013-08-15 16:50:00,70.7,63.5,29.92,SW,216,11.0,13.0,78,0.00,,,0.01,Wunderground v.1.15,2013-08-15 23:50:00,
2013-08-15 16:55:00,70.9,63.7,29.92,South,184,12.0,13.0,78,0.00,,,0.01,Wunderground v.1.15,2013-08-15 23:55:00,
2013-08-15 17:10:00,70.8,63.6,29.93,SW,221,11.0,13.0,78,0.00,,,0.01,Wunderground v.1.15,2013-08-16 00:10:00,
2013-08-15 17:15:00,70.6,63.4,29.92,SSW,213,10.0,14.0,78,0.00,,,0.01,Wunderground v.1.15,2013-08-16 00:15:00,
2013-08-15 17:20:00,70.3,63.5,29.92,SSW,193,11.0,11.0,79,0.00,,,0.01,Wunderground v.1.15,2013-08-16 00:20:00,
2013-08-15 17:30:00,70.1,63.6,29.92,South,189,10.0,10.0,80,0.00,,,0.01,Wunderground v.1.15,2013-08-16 00:30:00,
2013-08-15 17:40:00,70.1,63.3,29.93,SSW,202,7.0,7.0,79,0.00,,,0.01,Wunderground v.1.15,2013-08-16 00:40:00,
2013-08-15 17:50:00,69.7,63.3,29.93,SSE,155,5.0,6.0,80,0.00,,,0.01,Wunderground v.1.15,2013-08-16 00:50:00,
2013-08-15 17:55:00,69.4,63.3,29.92,SSE,162,5.0,6.0,81,0.00,,,0.01,Wunderground v.1.15,2013-08-16 00:55:00,
2013-08-15 18:05:00,69.1,63.0,29.92,South,183,5.0,6.0,81,0.00,,,0.01,Wunderground v.1.15,2013-08-16 01:05:00,
2013-08-15 18:10:00,68.7,63.0,29.92,SW,219,6.0,6.0,82,0.00,,,0.01,Wunderground v.1.15,2013-08-16 01:10:00,
2013-08-15 18:15:00,68.6,62.9,29.93,SSW,207,5.0,6.0,82,0.00,,,0.01,Wunderground v.1.15,2013-08-16 01:15:00,
2013-08-15 18:25:00,67.5,62.5,29.92,South,184,4.0,6.0,84,0.00,,,0.01,Wunderground v.1.15,2013-08-16 01:25:00,
2013-08-15 18:30:00,66.7,62.0,29.91,South,185,6.0,6.0,85,0.00,,,0.01,Wunderground v.1.15,2013-08-16 01:30:00,
2013-08-15 18:35:00,66.0,61.7,29.91,SSW,207,7.0,7.0,86,0.00,,,0.01,Wunderground v.1.15,2013-08-16 01:35:00,
2013-08-15 18:45:00,65.2,61.6,29.91,SSW,210,7.0,9.0,88,0.00,,,0.01,Wunderground v.1.15,2013-08-16 01:45:00,
2013-08-15 18:50:00,64.7,61.4,29.91,SSW,209,8.0,8.0,89,0.00,,,0.01,Wunderground v.1.15,2013-08-16 01:50:00,
2013-08-15 18:55:00,64.4,61.1,29.91,South,178,7.0,8.0,89,0.00,,,0.01,Wunderground v.1.15,2013-08-16 01:55:00,
2013-08-15 19:00:00,64.2,60.9,29.91,SSW,207,6.0,7.0,89,0.00,,,0.01,Wunderground v.1.15,2013-08-16 02:00:00,
2013-08-15 19:05:00,63.9,60.9,29.91,South,170,5.0,7.0,90,0.00,,,0.01,Wunderground v.1.15,2013-08-16 02:05:00,
2013-08-15 19:15:00,63.4,60.7,29.92,SSE,157,3.0,4.0,91,0.00,,,0.01,Wunderground v.1.15,2013-08-16 02:15:00,
2013-08-15 19:20:00,63.2,60.5,29.92,SE,142,4.0,5.0,91,0.00,,,0.01,Wunderground v.1.15,2013-08-16 02:20:00,
2013-08-15 19:25:00,63.1,60.7,29.92,South,178,3.0,5.0,92,0.00,,,0.01,Wunderground v.1.15,2013-08-16 02:25:00,
2013-08-15 19:30:00,63.0,60.6,29.92,SSW,194,3.0,3.0,92,0.00,,,0.01,Wunderground v.1.15,2013-08-16 02:30:00,
2013-08-15 19:35:00,62.8,60.4,29.92,SSW,202,2.0,3.0,92,0.00,,,0.01,Wunderground v.1.15,2013-08-16 02:35:00,
2013-08-15 19:45:00,62.4,60.3,29.92,SSW,201,1.0,3.0,93,0.00,,,0.01,Wunderground v.1.15,2013-08-16 02:45:00,
2013-08-15 19:50:00,62.3,60.2,29.92,SSW,197,1.0,1.0,93,0.00,,,0.01,Wunderground v.1.15,2013-08-16 02:50:00,
2013-08-15 19:55:00,62.3,60.6,29.93,SSW,193,1.0,2.0,94,0.00,,,0.01,Wunderground v.1.15,2013-08-16 02:55:00,
2013-08-15 20:00:00,62.3,60.6,29.93,South,191,1.0,1.0,94,0.00,,,0.01,Wunderground v.1.15,2013-08-16 03:00:00,
2013-08-15 20:05:00,62.3,60.6,29.93,South,191,1.0,1.0,94,0.00,,,0.01,Wunderground v.1.15,2013-08-16 03:05:00,
2013-08-15 20:15:00,62.4,60.7,29.93,SSW,200,1.0,1.0,94,0.00,,,0.01,Wunderground v.1.15,2013-08-16 03:15:00,
2013-08-15 20:20:00,62.3,60.6,29.93,SSW,196,1.0,1.0,94,0.00,,,0.01,Wunderground v.1.15,2013-08-16 03:20:00,
2013-08-15 20:25:00,62.2,60.5,29.93,SSW,209,1.0,1.0,94,0.00,,,0.01,Wunderground v.1.15,2013-08-16 03:25:00,
2013-08-15 20:30:00,62.1,60.4,29.93,SSW,209,1.0,1.0,94,0.00,,,0.01,Wunderground v.1.15,2013-08-16 03:30:00,
2013-08-15 20:40:00,62.0,60.3,29.93,SSW,210,3.0,5.0,94,0.00,,,0.01,Wunderground v.1.15,2013-08-16 03:40:00,
2013-08-15 20:45:00,62.0,60.3,29.93,SSW,200,5.0,6.0,94,0.00,,,0.01,Wunderground v.1.15,2013-08-16 03:45:00,
2013-08-15 20:50:00,61.8,60.1,29.93,SSW,205,7.0,7.0,94,0.00,,,0.01,Wunderground v.1.15,2013-08-16 03:50:00,
2013-08-15 20:55:00,61.6,60.2,29.93,SSW,210,7.0,8.0,95,0.00,,,0.01,Wunderground v.1.15,2013-08-16 03:55:00,
2013-08-15 21:00:00,61.4,60.0,29.93,SSW,213,7.0,8.0,95,0.00,,,0.01,Wunderground v.1.15,2013-08-16 04:00:00,
2013-08-15 21:05:00,61.1,59.7,29.93,SW,215,7.0,8.0,95,0.00,,,0.01,Wunderground v.1.15,2013-08-16 04:05:00,
2013-08-15 21:15:00,60.8,59.4,29.93,SW,215,7.0,8.0,95,0.00,,,0.01,Wunderground v.1.15,2013-08-16 04:15:00,
2013-08-15 21:20:00,60.6,59.5,29.93,SW,215,6.0,6.0,96,0.00,,,0.01,Wunderground v.1.15,2013-08-16 04:20:00,
2013-08-15 21:25:00,60.5,59.4,29.94,SSW,213,5.0,7.0,96,0.00,,,0.01,Wunderground v.1.15,2013-08-16 04:25:00,
2013-08-15 21:30:00,60.3,59.2,29.94,SSW,212,6.0,9.0,96,0.00,,,0.01,Wunderground v.1.15,2013-08-16 04:30:00,
2013-08-15 21:35:00,60.2,59.1,29.94,SW,214,7.0,9.0,96,0.00,,,0.01,Wunderground v.1.15,2013-08-16 04:35:00,
2013-08-15 21:40:00,60.2,59.3,29.94,SSW,209,7.0,7.0,97,0.00,,,0.01,Wunderground v.1.15,2013-08-16 04:40:00,
2013-08-15 21:45:00,60.2,59.3,29.94,SSW,200,7.0,7.0,97,0.00,,,0.01,Wunderground v.1.15,2013-08-16 04:45:00,
2013-08-15 21:50:00,60.1,59.2,29.94,SSW,212,7.0,8.0,97,0.00,,,0.01,Wunderground v.1.15,2013-08-16 04:50:00,
2013-08-15 21:55:00,60.0,59.1,29.94,SSW,212,7.0,8.0,97,0.00,,,0.01,Wunderground v.1.15,2013-08-16 04:55:00,
2013-08-15 22:00:00,59.9,58.8,29.94,SSW,202,7.0,7.0,96,0.00,,,0.01,Wunderground v.1.15,2013-08-16 05:00:00,
2013-08-15 22:05:00,59.8,58.7,29.95,SSW,204,6.0,7.0,96,0.00,,,0.01,Wunderground v.1.15,2013-08-16 05:05:00,
2013-08-15 22:15:00,59.7,58.8,29.95,SSW,196,4.0,5.0,97,0.00,,,0.01,Wunderground v.1.15,2013-08-16 05:15:00,
2013-08-15 22:20:00,59.6,58.7,29.95,SSW,206,4.0,6.0,97,0.00,,,0.01,Wunderground v.1.15,2013-08-16 05:20:00,
2013-08-15 22:25:00,59.6,58.7,29.95,SSW,209,4.0,6.0,97,0.00,,,0.01,Wunderground v.1.15,2013-08-16 05:25:00,
2013-08-15 22:30:00,59.5,58.6,29.95,SSW,210,4.0,5.0,97,0.00,,,0.01,Wunderground v.1.15,2013-08-16 05:30:00,
2013-08-15 22:35:00,59.4,58.5,29.95,SSW,202,5.0,7.0,97,0.00,,,0.01,Wunderground v.1.15,2013-08-16 05:35:00,
2013-08-15 22:40:00,59.3,58.4,29.95,SSW,202,5.0,5.0,97,0.00,,,0.01,Wunderground v.1.15,2013-08-16 05:40:00,
2013-08-15 22:50:00,59.4,58.5,29.94,SW,214,6.0,8.0,97,0.00,,,0.01,Wunderground v.1.15,2013-08-16 05:50:00,
2013-08-15 22:55:00,59.4,58.5,29.94,SW,215,5.0,8.0,97,0.00,,,0.01,Wunderground v.1.15,2013-08-16 05:55:00,
2013-08-15 23:00:00,59.3,58.4,29.95,SW,216,5.0,7.0,97,0.00,,,0.01,Wunderground v.1.15,2013-08-16 06:00:00,
2013-08-15 23:05:00,59.3,58.4,29.95,SSW,206,6.0,7.0,97,0.00,,,0.01,Wunderground v.1.15,2013-08-16 06:05:00,
2013-08-15 23:10:00,59.3,58.4,29.95,SSW,211,6.0,6.0,97,0.00,,,0.01,Wunderground v.1.15,2013-08-16 06:10:00,
2013-08-15 23:15:00,59.3,58.4,29.95,SSW,211,5.0,6.0,97,0.00,,,0.01,Wunderground v.1.15,2013-08-16 06:15:00,
2013-08-15 23:25:00,59.4,58.8,29.94,SSW,212,6.0,7.0,98,0.00,,,0.01,Wunderground v.1.15,2013-08-16 06:25:00,
2013-08-15 23:30:00,59.4,58.8,29.95,SW,214,6.0,6.0,98,0.00,,,0.01,Wunderground v.1.15,2013-08-16 06:30:00,
2013-08-15 23:35:00,59.4,58.5,29.95,SW,216,6.0,8.0,97,0.00,,,0.01,Wunderground v.1.15,2013-08-16 06:35:00,
2013-08-15 23:40:00,59.4,58.5,29.95,SW,215,6.0,8.0,97,0.00,,,0.01,Wunderground v.1.15,2013-08-16 06:40:00,
2013-08-15 23:45:00,59.4,58.5,29.95,SW,215,5.0,8.0,97,0.00,,,0.01,Wunderground v.1.15,2013-08-16 06:45:00,
2013-08-15 23:50:00,59.4,58.5,29.95,SW,219,4.0,4.0,97,0.00,,,0.01,Wunderground v.1.15,2013-08-16 06:50:00,